Vineland Station Rcs, Ontario

11:36 PM EST on February 21, 2017 (GMT -0500)
Vineland (AU8)

Weather History for CXVN - October, 2013

Change the Weather History Date:

Saturday, October 12, 2013

  Actual Average (CYSN) Record (CYSN)
Temperature  
Mean Temperature 53 °F -  
Max Temperature 64 °F 58 °F 75 °F (2015)
Min Temperature 42 °F 44 °F 35 °F (2012)
Degree Days  
Heating Degree Days 12    
Growing Degree Days 3 (Base 50)    
Moisture  
Dew Point 51 °F    
Average Humidity 88    
Maximum Humidity 97    
Minimum Humidity 68    
Precipitation  
Precipitation 0.00 in - - ()
Sea Level Pressure  
Sea Level Pressure 30.12 in    
Wind  
Wind Speed 3 mph ()    
Max Wind Speed 7 mph    
Max Gust Speed -    
Averages and records for this station are not official NWS values.
T = Trace of Precipitation, MM = Missing Value Source: Averaged Metar Reports

Daily Weather History Graph

Daily Weather History Graph

Search for Another Location

Airport or City:

Trip Planner

Search our weather history database for the weather conditions in past years. The results will help you decide how hot, cold, wet, or windy it might be!

Date:

Astronomy

Oct. 12, 2013 Rise Set
Actual Time 7:27 AM EDT 6:39 PM EDT
Civil Twilight 6:59 AM EDT 7:07 PM EDT
Nautical Twilight 6:26 AM EDT 7:40 PM EDT
Astronomical Twilight 5:53 AM EDT 8:13 PM EDT
Moon 2:56 PM EDT (10/12) 12:19 AM EDT (10/12)
Length of Visible Light 12h 08m
Length of Day
11h 11m
First Quarter, 58% of the Moon is Illuminated
Oct 12
First Quarter
Oct 18
Full
Oct 26
Last Quarter
Nov 3
New
Nov 10
First Quarter

Hourly Weather History & Observations

Time (EDT) Temp. Windchill Dew Point Humidity Pressure Visibility Wind Dir Wind Speed Gust Speed Precip Events Conditions
12:00 AM 49.6 °F - 48.4 °F 95% 30.11 in - SW 2.3 mph - N/A   Unknown
1:00 AM 47.7 °F - 46.4 °F 95% 30.10 in - South 2.3 mph - N/A   Unknown
2:00 AM 48 °F - 47 °F 96% 30.10 in - South 3.5 mph - -  
2:00 AM 48.0 °F - 47.1 °F 97% 30.10 in - South 3.5 mph - N/A   Unknown
3:00 AM 45.9 °F - 45.0 °F 97% 30.11 in - South 1.2 mph - N/A   Unknown
4:00 AM 45.9 °F - 45.0 °F 97% 30.11 in - South 2.3 mph - N/A   Unknown
5:00 AM 45.0 °F 43.5 °F 44.1 °F 97% 30.11 in - South 3.5 mph - N/A   Unknown
6:00 AM 45.7 °F - 44.8 °F 97% 30.12 in - SSE 2.3 mph - N/A   Unknown
7:00 AM 45.1 °F - 44.4 °F 97% 30.14 in - Calm Calm - N/A   Unknown
8:00 AM 45 °F - 44 °F 96% 30.15 in - SW 2.3 mph - -  
8:00 AM 45.1 °F - 44.2 °F 97% 30.15 in - SW 2.3 mph - N/A   Unknown
9:00 AM 52.0 °F - 51.1 °F 97% 30.16 in - Calm Calm - N/A   Unknown
10:00 AM 57.2 °F - 50.7 °F 79% 30.15 in - NNE 1.2 mph - N/A   Unknown
11:00 AM 58.8 °F - 48.2 °F 68% 30.14 in - NNE 2.3 mph - N/A   Unknown
12:00 PM 60.4 °F - 51.4 °F 72% 30.14 in - North 4.6 mph - N/A   Unknown
1:00 PM 62.6 °F - 55.6 °F 78% 30.14 in - NE 5.8 mph - N/A   Unknown
2:00 PM 63 °F - 57 °F 76% 30.12 in - ENE 6.9 mph - -  
2:00 PM 63.0 °F - 57.2 °F 81% 30.12 in - ENE 6.9 mph - N/A   Unknown
3:00 PM 64.0 °F - 56.1 °F 75% 30.11 in - ENE 4.6 mph - N/A   Unknown
4:00 PM 64.0 °F - 55.9 °F 75% 30.10 in - NE 4.6 mph - N/A   Unknown
5:00 PM 64.0 °F - 56.3 °F 76% 30.09 in - North 4.6 mph - N/A   Unknown
6:00 PM 63.1 °F - 56.7 °F 79% 30.08 in - NNE 3.5 mph - N/A   Unknown
7:00 PM 58.8 °F - 55.2 °F 88% 30.09 in - NW 3.5 mph - N/A   Unknown
8:00 PM 58 °F - 56 °F 93% 30.09 in - West 2.3 mph - -  
8:00 PM 58.1 °F - 56.5 °F 94% 30.09 in - West 2.3 mph - N/A   Unknown
9:00 PM 57.4 °F - 55.8 °F 94% 30.10 in - SW 2.3 mph - N/A   Unknown
10:00 PM 55.9 °F - 54.1 °F 94% 30.11 in - SW 3.5 mph - N/A   Unknown
11:00 PM 54.3 °F - 52.9 °F 95% 30.11 in - South 2.3 mph - N/A   Unknown